Powrót do katalogu

DELTA 1 DEB

AktywnySSO
NORAD 10768·DEBRIS·🇺🇸 United States

Wystrzelony Jul 29, 1976 z Vandenberg Space Force Base

Loading…

Następne Przeloty (najbliższe 24 godziny)

TLE

ŚwieżeSource: Space-Track

Epoka: Sep 14, 2026, 03:04 UTC

1 10768U 76077BR  26257.12822671  .00000059  00000-0  88888-3 0  9997
2 10768 102.3416 329.9686 0074194 152.6426 237.5971 12.28580810247096

Śledź DELTA 1 DEB w czasie rzeczywistym z AllMySat

Download on the App Store